[Date Prev][Date Next][Thread Prev][Thread Next] - [Date Index][Thread Index][Author Index]

2 Line ISS Keps 5-10



ISS
1 25544U 98067A   06129.99108796  .00019258  00000-0  12943-3 0  9017
2 25544 051.6382 024.1034 0009832 178.6969 224.1837 15.75164929427143
----
Via the sarex mailing list at AMSAT.ORG courtesy of AMSAT-NA.
To unsubscribe, send "unsubscribe sarex" to Majordomo@amsat.org



AMSAT Top AMSAT Home